Tracking 26325 objects as of 28-Nov-2022
HD Live streaming from Space Station
objects crossing your sky now

CZ-3B R/B

Track CZ-3B R/B now!
10-day predictions


NORAD ID: 41587
Int'l Code: 2016-037B
Perigee: 213.0 km
Apogee: 25,075.3 km
Inclination: 19.5 °
Period: 434.9 minutes
Semi major axis: 19015 km
RCS: Unknown
Launch date: June 12, 2016
Source: People's Republic of China (PRC)
Launch site: Xichang Space Center, China (XSC)

Note: This is a ROCKET BODY
aabbcc
Your satellite tracking list
Your tracking list is empty




NASA's NSSDC Master Catalog

Two Line Element Set (TLE):
1 41587U 16037B   22332.30243999  .00023385  00000-0  12831-2 0  9991
2 41587  19.5384  30.0701 6537484 174.5154 199.6599  3.31095021 64891
Source of the keplerian elements: AFSPC